Date String (YYYY-MM-DD hh:mm:ss) UTC,Instrument flags,Ambient pressure (hPa),Sample flow (lpm),Bypass flow (lpm),Sample temperature (°C),Ambient temperature (°C),ASC tube jacket temperature (°C),LED temperature (°C),Box temperature (°C),Sample RH (%),Span deviation,Mass concentration (μg/m³),Mass concentration (μg/m³),Mass concentration (μg/m³)
DateTimeUTC,F1_M11,P_M11,Q1_M11,Q2_M11,T1_M11,T2_M11,T3_M11,T4_M11,T5_M11,U1_M11,ZSPAN_M11,X0_M11,X2_M11,X1_M11
2022-08-03 11:00:00,,0827.1,4.99,0.00,29.9,27.8,00.0,38.6,31.7,30.2,0000.0,0007.24,0003.46,0003.04
2022-08-03 11:01:00,,0827.1,5.01,0.00,29.9,27.7,00.0,38.6,31.6,30.4,0000.0,0007.36,0003.40,0003.03
2022-08-03 11:02:00,,0827.2,4.99,0.00,29.8,27.7,00.0,38.6,31.6,30.7,0000.0,0007.11,0003.36,0003.03
2022-08-03 11:03:00,,0827.2,5.00,0.00,29.7,27.8,00.0,38.6,31.6,30.7,0000.0,0007.09,0003.37,0003.03
2022-08-03 11:04:00,,0827.2,5.00,0.00,29.7,27.9,00.0,38.6,31.6,30.8,0000.0,0007.73,0003.36,0003.02
2022-08-03 11:05:00,,0827.2,4.99,0.00,29.7,28.0,00.0,38.6,31.6,31.0,0000.0,0007.45,0003.36,0003.02
2022-08-03 11:06:00,,0827.2,4.99,0.00,29.7,28.2,00.0,38.6,31.6,31.4,0000.0,0007.45,0003.37,0003.00
2022-08-03 11:07:00,,0827.2,4.99,0.00,29.7,28.3,00.0,38.6,31.7,31.5,0000.0,0007.47,0003.38,0002.99
2022-08-03 11:08:00,,0827.3,4.99,0.00,29.7,28.4,00.0,38.6,31.7,31.5,0000.0,0007.54,0003.37,0002.99
2022-08-03 11:09:00,,0827.4,5.00,0.00,29.8,28.5,00.0,38.6,31.7,31.4,0000.0,0007.87,0003.39,0003.01
2022-08-03 11:10:00,,0827.4,5.00,0.00,29.8,28.6,00.0,38.6,31.8,31.5,0000.0,0008.66,0003.41,0003.01
2022-08-03 11:11:00,,0827.4,5.00,0.00,29.8,28.7,00.0,38.6,31.8,31.6,0000.0,0008.54,0003.42,0003.01
2022-08-03 11:12:00,,0827.4,5.00,0.00,29.8,28.8,00.0,38.6,31.8,31.7,0000.0,0008.22,0003.43,0003.00
2022-08-03 11:13:00,,0827.4,4.99,0.00,29.9,28.8,00.0,38.6,31.8,31.6,0000.0,0008.19,0003.46,0003.00
2022-08-03 11:14:00,,0827.5,5.00,0.00,29.9,28.9,00.0,38.6,31.9,31.8,0000.0,0008.13,0003.46,0003.00
2022-08-03 11:15:00,,0827.5,5.01,0.00,29.9,28.9,00.0,38.7,31.9,32.3,0000.0,0007.66,0003.47,0003.02
2022-08-03 11:16:00,,0827.5,5.00,0.00,29.9,28.7,00.0,38.7,31.8,32.4,0000.0,0007.81,0003.48,0003.04
2022-08-03 11:17:00,,0827.6,5.01,0.00,29.9,28.1,00.0,38.6,31.7,32.2,0000.0,0008.47,0003.48,0003.06
2022-08-03 11:18:00,,0827.6,5.01,0.00,29.9,27.7,00.0,38.6,31.6,31.9,0000.0,0008.45,0003.48,0003.08
2022-08-03 11:19:00,,0827.5,4.99,0.00,29.8,27.6,00.0,38.6,31.5,32.0,0000.0,0008.40,0003.49,0003.10
2022-08-03 11:20:00,,0827.6,5.01,0.00,29.7,27.6,00.0,38.6,31.4,32.0,0000.0,0008.23,0003.51,0003.10
2022-08-03 11:21:00,,0827.6,4.99,0.00,29.7,27.7,00.0,38.5,31.5,32.0,0000.0,0007.52,0003.50,0003.10
2022-08-03 11:22:00,,0827.7,5.01,0.00,29.7,27.9,00.0,38.5,31.5,32.1,0000.0,0007.65,0003.53,0003.12
2022-08-03 11:23:00,,0827.7,5.00,0.00,29.7,28.0,00.0,38.5,31.5,32.1,0000.0,0008.01,0003.55,0003.14
2022-08-03 11:24:00,,0827.7,5.00,0.00,29.7,28.1,00.0,38.5,31.6,32.1,0000.0,0008.09,0003.57,0003.15
2022-08-03 11:25:00,,0827.7,5.00,0.00,29.7,28.2,00.0,38.5,31.6,32.0,0000.0,0008.32,0003.60,0003.15
2022-08-03 11:26:00,,0827.6,5.00,0.00,29.7,28.3,00.0,38.5,31.6,32.0,0000.0,0008.42,0003.58,0003.15
2022-08-03 11:27:00,,0827.6,5.00,0.00,29.7,28.4,00.0,38.5,31.6,32.0,0000.0,0008.14,0003.57,0003.14
2022-08-03 11:28:00,,0827.6,4.99,0.00,29.7,28.5,00.0,38.5,31.7,32.0,0000.0,0007.48,0003.58,0003.14
2022-08-03 11:29:00,,0827.5,5.00,0.00,29.7,28.6,00.0,38.6,31.7,31.9,0000.0,0007.45,0003.57,0003.14
2022-08-03 11:30:00,,0827.5,5.00,0.00,29.8,28.6,00.0,38.6,31.7,31.9,0000.0,0007.38,0003.55,0003.14
2022-08-03 11:31:00,,0827.6,5.00,0.00,29.8,28.7,00.0,38.6,31.8,31.8,0000.0,0007.11,0003.52,0003.14
2022-08-03 11:32:00,,0827.6,4.99,0.00,29.8,28.8,00.0,38.6,31.8,31.8,0000.0,0006.98,0003.52,0003.15
2022-08-03 11:33:00,,0827.6,4.99,0.00,29.8,28.8,00.0,38.6,31.8,31.7,0000.0,0006.74,0003.49,0003.15
2022-08-03 11:34:00,,0827.7,5.00,0.00,29.9,28.7,00.0,38.6,31.7,31.6,0000.0,0006.12,0003.48,0003.14
2022-08-03 11:35:00,,0827.7,5.02,0.00,29.8,28.0,00.0,38.6,31.6,31.6,0000.0,0005.94,0003.45,0003.14
2022-08-03 11:36:00,,0827.7,4.99,0.00,29.8,27.6,00.0,38.5,31.6,31.7,0000.0,0005.58,0003.42,0003.14
2022-08-03 11:37:00,,0827.7,5.01,0.00,29.7,27.5,00.0,38.5,31.4,31.8,0000.0,0006.22,0003.43,0003.14
2022-08-03 11:38:00,,0827.7,4.99,0.00,29.6,27.5,00.0,38.5,31.4,31.9,0000.0,0006.38,0003.41,0003.15
2022-08-03 11:39:00,,0827.7,5.01,0.00,29.6,27.6,00.0,38.5,31.4,32.0,0000.0,0006.48,0003.42,0003.15
2022-08-03 11:40:00,,0827.7,5.00,0.00,29.6,27.8,00.0,38.5,31.4,32.0,0000.0,0006.78,0003.42,0003.16
2022-08-03 11:41:00,,0827.7,5.00,0.00,29.6,27.9,00.0,38.5,31.5,32.0,0000.0,0007.76,0003.46,0003.16
2022-08-03 11:42:00,,0827.7,5.00,0.00,29.6,28.0,00.0,38.5,31.5,31.9,0000.0,0007.92,0003.48,0003.15
2022-08-03 11:43:00,,0827.7,5.01,0.00,29.6,28.1,00.0,38.5,31.5,31.7,0000.0,0007.95,0003.49,0003.15
2022-08-03 11:44:00,,0827.7,5.00,0.00,29.6,28.2,00.0,38.5,31.5,31.7,0000.0,0008.03,0003.52,0003.15
2022-08-03 11:45:00,,0827.8,5.00,0.00,29.6,28.3,00.0,38.5,31.5,31.6,0000.0,0008.03,0003.52,0003.15
2022-08-03 11:46:00,,0827.8,5.00,0.00,29.6,28.4,00.0,38.5,31.6,31.5,0000.0,0008.04,0003.53,0003.15
2022-08-03 11:47:00,,0827.8,5.01,0.00,29.7,28.5,00.0,38.5,31.6,31.5,0000.0,0008.09,0003.56,0003.15
2022-08-03 11:48:00,,0827.9,4.99,0.00,29.7,28.6,00.0,38.5,31.6,31.2,0000.0,0007.60,0003.58,0003.15
2022-08-03 11:49:00,,0827.9,4.99,0.00,29.7,28.6,00.0,38.5,31.7,31.0,0000.0,0007.94,0003.60,0003.15
2022-08-03 11:50:00,,0827.9,5.00,0.00,29.7,28.7,00.0,38.5,31.7,31.0,0000.0,0008.07,0003.60,0003.15
2022-08-03 11:51:00,,0827.9,5.00,0.00,29.8,28.7,00.0,38.5,31.7,31.0,0000.0,0007.90,0003.61,0003.14
2022-08-03 11:52:00,,0827.9,5.00,0.00,29.8,28.8,00.0,38.5,31.7,30.9,0000.0,0007.43,0003.63,0003.15
2022-08-03 11:53:00,,0827.8,5.01,0.00,29.8,28.8,00.0,38.6,31.7,30.9,0000.0,0007.41,0003.67,0003.17
2022-08-03 11:54:00,,0827.8,5.00,0.00,29.8,28.8,00.0,38.6,31.8,30.8,0000.0,0007.64,0003.67,0003.18
2022-08-03 11:55:00,,0827.9,5.00,0.00,29.9,28.8,00.0,38.6,31.8,30.9,0000.0,0008.05,0003.66,0003.18
2022-08-03 11:56:00,,0827.9,5.00,0.00,29.9,28.3,00.0,38.6,31.7,30.8,0000.0,0008.10,0003.68,0003.18
2022-08-03 11:57:00,,0828.0,5.00,0.00,29.8,27.7,00.0,38.6,31.6,31.0,0000.0,0008.09,0003.67,0003.18
2022-08-03 11:58:00,,0827.9,4.99,0.00,29.7,27.5,00.0,38.5,31.5,30.9,0000.0,0008.02,0003.67,0003.18
2022-08-03 11:59:00,,0828.0,5.00,0.00,29.7,27.5,00.0,38.5,31.4,31.0,0000.0,0007.95,0003.66,0003.19
